Date,TemperatureHighF,TemperatureAvgF,TemperatureLowF,DewpointHighF,DewpointAvgF,DewpointLowF,HumidityHigh,HumidityAvg,HumidityLow,PressureMaxIn,PressureMinIn,WindSpeedMaxMPH,WindSpeedAvgMPH,GustSpeedMaxMPH,PrecipitationSumIn
2013-1-1,41.8,38.1,29.4,32.3,28.4,16.9,79,68,56,30.04,29.85,10,2,10,0.06
2013-1-2,33.1,28.4,24.3,18.2,16.2,12.9,68,60,53,30.20,30.00,10,2,12,0.00
2013-1-3,34.6,28.9,24.5,22.2,18.5,17.5,77,65,52,30.22,30.10,6,1,7,0.00
2013-1-4,37.4,33.6,27.6,24.6,23.4,21.5,79,66,57,30.13,29.99,11,2,12,0.00
2013-1-5,42.2,34.7,30.7,25.8,23.4,20.8,77,63,50,30.33,30.05,9,2,9,0.00
2013-1-6,47.3,38.0,31.5,35.8,30.9,24.8,95,76,58,30.26,30.00,6,1,9,0.03
2013-1-7,46.7,39.0,30.8,32.4,28.1,24.7,81,66,45,30.42,30.08,11,1,12,0.00
2013-1-8,50.3,37.3,27.2,35.7,30.6,24.4,90,77,56,30.45,30.36,10,1,12,0.00
2013-1-9,51.7,42.9,32.1,42.2,36.4,29.8,93,79,60,30.41,30.16,9,1,10,0.00
2013-1-10,49.4,43.3,36.0,34.6,28.8,26.3,72,57,42,30.56,30.27,11,2,13,0.00
2013-1-11,48.6,41.9,34.4,45.2,37.0,27.6,96,83,68,30.54,30.08,9,1,11,0.71
2013-1-12,47.7,45.7,44.3,46.5,44.5,43.1,96,96,95,30.19,30.07,6,1,6,0.01
2013-1-13,54.1,47.4,42.0,51.0,46.0,40.9,96,95,87,30.17,30.02,9,1,10,0.02
2013-1-14,57.1,52.3,39.6,55.0,46.5,29.7,96,82,48,30.29,29.94,12,2,12,0.03
2013-1-15,39.5,38.0,36.0,37.4,32.4,28.7,94,80,68,30.35,30.21,8,1,8,0.14
2013-1-16,37.9,35.9,33.9,36.9,34.7,32.6,96,95,90,30.22,29.80,8,1,10,0.10
2013-1-17,43.7,39.6,37.3,36.8,32.9,28.5,94,77,62,30.11,29.94,7,1,13,0.06
2013-1-18,37.3,30.3,25.4,28.8,16.3,7.6,74,57,38,30.52,30.00,15,2,19,0.34
2013-1-19,53.6,39.7,25.9,30.3,26.0,14.6,77,59,39,30.44,29.95,14,3,14,0.06
2013-1-20,54.9,43.8,31.7,33.7,26.4,14.6,71,52,27,30.06,29.73,14,4,20,0.00
2013-1-21,33.1,29.2,25.7,25.5,17.1,11.6,92,62,44,30.11,29.86,11,1,11,0.00
2013-1-22,26.1,19.6,14.0,17.6,3.2,-2.7,70,49,36,30.25,29.86,13,5,16,0.00
2013-1-23,20.5,14.9,11.3,7.0,1.9,-2.7,79,56,41,30.29,30.20,11,2,11,0.00
2013-1-24,24.5,17.6,11.4,7.8,4.0,-2.0,82,57,32,30.44,30.14,16,3,19,0.00
2013-1-25,24.9,17.7,13.2,17.3,7.4,-0.4,92,65,45,30.46,30.09,10,1,10,0.00
2013-1-26,28.0,20.3,12.5,13.6,10.9,8.6,91,69,46,30.41,30.07,11,2,12,0.03
2013-1-27,34.4,25.4,17.5,17.0,13.4,9.0,76,60,46,30.55,30.40,11,1,13,0.00
2013-1-28,36.3,30.7,23.6,35.0,26.9,15.9,99,86,70,30.52,30.04,8,1,10,0.16
2013-1-29,52.7,43.3,35.6,45.8,40.5,34.3,96,90,75,30.16,30.03,9,1,9,0.00
2013-1-30,67.7,56.3,45.2,61.0,53.1,44.1,96,89,78,30.08,29.38,24,3,25,0.05
2013-1-31,62.2,45.5,29.7,59.7,33.1,13.1,94,63,40,29.84,29.10,21,7,25,0.66
2013-2-1,32.0,28.4,23.5,20.0,12.8,8.5,72,52,39,30.27,29.84,13,3,16,0.00
2013-2-2,31.0,24.8,18.4,22.1,11.0,7.0,90,57,38,30.34,30.07,11,2,11,0.00
2013-2-3,31.2,26.5,22.4,24.6,22.2,20.1,94,84,69,30.07,29.82,5,1,6,0.00
2013-2-4,30.1,26.4,22.2,24.6,15.0,11.5,91,62,46,30.02,29.84,10,3,13,0.00
2013-2-5,32.6,30.3,26.6,30.7,28.2,23.2,94,92,87,29.98,29.90,5,0,6,0.00
2013-2-6,39.6,33.7,29.3,32.0,25.1,13.5,95,72,50,30.38,29.93,11,2,12,0.01
2013-2-7,36.7,29.7,25.0,32.8,17.9,10.9,86,61,51,30.51,30.31,9,1,9,0.00
2013-2-8,40.1,36.1,29.5,38.8,34.2,28.2,96,93,85,30.31,29.63,17,5,23,0.71
2013-2-9,33.6,28.5,21.7,29.5,19.7,9.3,96,72,43,30.36,29.76,14,5,17,0.07
2013-2-10,38.9,26.4,15.7,24.2,14.4,8.7,80,62,29,30.51,30.34,7,1,8,0.12
2013-2-11,51.6,41.7,29.9,50.2,39.8,24.2,96,93,79,30.36,29.67,13,1,13,0.36
2013-2-12,46.1,40.7,31.8,41.9,29.3,25.5,96,65,50,29.99,29.76,12,3,14,0.01
2013-2-13,44.1,35.5,28.0,32.0,28.0,23.9,95,75,57,29.98,29.70,8,1,8,0.00
2013-2-14,47.0,37.4,32.3,35.4,32.7,29.1,96,85,51,30.04,29.72,7,1,7,0.10
2013-2-15,57.2,43.1,31.8,39.6,34.7,30.5,95,75,44,30.05,29.93,10,1,11,0.01
2013-2-16,43.1,36.5,31.4,34.7,29.2,17.9,93,76,56,29.97,29.74,12,3,14,0.00
2013-2-17,32.4,27.8,19.7,17.8,8.7,1.8,57,44,34,30.05,29.69,22,6,22,0.00
2013-2-18,35.9,26.1,17.7,15.5,8.2,2.4,56,47,35,30.29,30.05,14,3,16,0.00
2013-2-19,52.1,40.0,29.1,44.8,32.1,14.6,95,75,48,30.23,29.70,14,2,18,0.23
2013-2-20,38.2,30.7,25.6,29.2,16.2,11.6,73,55,45,30.03,29.76,19,5,19,0.00
2013-2-21,35.9,28.9,24.0,17.6,15.3,12.1,66,57,46,30.30,30.01,16,5,18,0.00
2013-2-22,36.5,31.0,23.0,33.4,24.4,15.4,91,77,66,30.41,30.27,8,1,8,0.00
2013-2-23,45.9,40.7,35.2,44.6,39.4,33.1,96,95,91,30.28,29.80,13,3,15,0.37
2013-2-24,47.6,39.2,32.5,39.8,33.0,23.4,96,79,55,30.01,29.75,14,4,17,0.01
2013-2-25,43.7,37.1,29.8,30.3,27.1,23.2,80,67,54,30.25,30.01,9,1,9,0.00
2013-2-26,44.6,37.1,28.3,37.9,31.9,25.3,95,82,66,30.29,29.83,19,5,21,0.23
2013-2-27,51.4,45.5,39.3,49.5,42.5,38.0,96,89,72,29.85,29.50,21,4,22,0.96
2013-2-28,49.4,43.2,36.8,39.5,35.3,29.7,89,74,57,29.65,29.57,7,1,9,0.00
2013-3-1,44.6,39.0,33.1,33.2,30.4,27.3,90,72,54,29.80,29.63,12,3,13,0.00
2013-3-2,39.9,35.7,30.4,27.6,25.4,23.8,77,66,57,29.81,29.72,11,3,11,0.00
2013-3-3,37.4,32.5,28.8,23.8,21.4,19.2,76,63,52,29.80,29.70,10,4,13,0.00
2013-3-4,41.6,34.2,27.5,23.8,21.1,17.6,71,59,46,29.94,29.79,17,4,17,0.00
2013-3-5,48.7,37.6,30.4,30.4,26.1,22.4,86,64,44,30.04,29.93,9,2,11,0.00
2013-3-6,40.5,38.6,32.0,37.1,34.4,28.2,91,85,77,29.97,29.78,25,8,28,0.09
2013-3-7,39.4,36.2,33.8,35.7,32.7,29.6,95,87,78,30.09,29.90,17,5,17,0.14
2013-3-8,41.3,34.7,31.2,35.8,32.1,29.9,96,91,71,30.20,30.01,13,3,14,0.22
2013-3-9,55.7,42.9,32.9,30.7,25.6,19.9,79,54,25,30.33,30.18,13,3,13,0.00
2013-3-10,48.2,38.1,29.9,38.5,33.4,26.9,95,84,65,30.40,30.32,8,1,11,0.00
2013-3-11,56.9,45.0,33.1,48.9,41.8,31.6,95,89,69,30.33,30.10,14,2,14,0.00
2013-3-12,57.2,52.9,45.7,56.1,50.1,39.6,96,90,77,30.10,29.68,23,5,24,0.86
2013-3-13,50.9,43.2,37.9,39.7,32.3,25.1,87,67,40,29.92,29.82,11,2,12,0.00
2013-3-14,41.4,35.7,30.8,27.8,17.0,11.0,68,47,33,29.99,29.88,19,4,20,0.00
2013-3-15,48.6,39.1,29.0,31.9,21.4,12.2,61,49,40,30.02,29.73,11,2,12,0.00
2013-3-16,45.3,36.4,32.6,32.6,29.4,23.7,95,77,57,29.93,29.79,6,1,6,0.02
2013-3-17,39.2,33.7,29.2,32.2,23.8,18.8,95,69,48,30.31,29.92,11,2,12,0.09
2013-3-18,37.9,33.6,29.2,36.6,25.7,14.3,95,73,53,30.41,29.97,18,5,19,0.39
2013-3-19,48.2,40.8,37.2,40.5,35.2,17.5,96,83,40,29.97,29.72,15,4,19,0.40
2013-3-20,47.4,39.1,32.1,25.2,20.9,18.0,64,48,35,29.93,29.81,13,2,13,0.00
2013-3-21,38.9,33.7,30.1,28.4,22.4,14.4,88,64,41,29.84,29.65,10,2,10,0.00
2013-3-22,41.1,34.2,27.6,23.3,20.3,15.1,72,57,42,29.92,29.77,11,3,13,0.00
2013-3-23,46.0,38.2,30.1,24.1,22.0,20.2,76,53,38,29.96,29.85,14,3,16,0.00
2013-3-24,46.0,38.5,30.9,29.0,23.3,19.9,71,55,40,29.97,29.71,11,2,12,0.00
2013-3-25,38.6,35.8,33.3,35.1,32.3,28.5,95,88,72,29.72,29.46,13,3,16,0.54
2013-3-26,49.4,46.5,40.5,31.8,29.6,27.2,70,52,43,29.89,29.76,6,1,7,0.00
2013-3-27,51.3,43.0,34.1,33.4,29.7,24.9,77,61,38,30.01,29.89,12,2,15,0.00
2013-3-28,48.3,42.8,35.3,33.7,31.3,29.4,82,65,48,30.14,29.99,10,2,13,0.00
2013-3-29,54.5,45.5,36.5,32.1,30.2,28.1,76,56,38,30.17,30.07,11,2,13,0.00
2013-3-30,57.9,47.5,37.6,34.7,28.6,22.3,77,51,27,30.20,30.09,9,1,10,0.00
2013-3-31,55.7,46.0,37.2,46.1,37.1,26.8,95,73,41,30.15,29.69,17,3,21,0.26
2013-4-1,64.3,50.5,38.8,47.5,39.2,14.7,95,69,35,29.93,29.64,14,2,17,0.01
2013-4-2,44.3,38.2,31.4,18.4,15.6,13.2,56,40,29,30.11,29.93,13,3,15,0.00
2013-4-3,46.3,39.0,32.3,19.5,15.6,11.4,50,39,28,30.31,30.11,13,3,15,0.00
2013-4-4,53.2,40.6,29.9,31.4,22.4,12.1,65,49,31,30.42,30.12,11,1,15,0.00
2013-4-5,63.2,48.3,38.2,39.3,29.8,20.7,94,55,21,30.12,29.72,14,2,16,0.04
2013-4-6,52.7,42.1,35.2,29.9,22.5,13.6,73,47,22,30.33,30.01,12,3,16,0.00
2013-4-7,60.9,48.6,35.7,45.3,37.1,29.3,83,66,41,30.33,30.03,19,3,26,0.00
2013-4-8,74.5,60.4,49.5,51.7,47.1,43.0,83,63,35,30.09,29.99,12,1,13,0.00
2013-4-9,83.1,70.8,58.9,55.2,50.2,42.8,79,52,26,30.00,29.91,12,2,13,0.00
2013-4-10,81.7,65.6,56.0,58.5,53.2,48.1,94,66,43,29.95,29.78,15,2,18,0.43
2013-4-11,60.6,55.4,46.1,59.2,52.4,43.0,95,90,78,30.02,29.76,14,3,14,0.06
2013-4-12,46.2,43.7,42.4,44.0,42.3,41.1,96,95,86,30.00,29.70,21,6,24,0.93
2013-4-13,58.5,48.6,40.5,45.2,41.1,36.7,96,78,46,30.00,29.74,10,1,10,0.06
2013-4-14,59.2,50.9,42.5,44.9,37.0,27.6,95,64,35,30.22,29.99,11,2,14,0.00
2013-4-15,55.5,49.1,43.3,43.1,36.7,32.1,90,63,47,30.38,30.21,13,2,13,0.00
2013-4-16,70.6,57.4,45.9,57.9,51.0,43.1,92,80,61,30.38,30.14,15,2,16,0.00
2013-4-17,73.3,60.7,51.6,56.4,48.1,34.1,94,66,26,30.30,30.11,10,1,10,0.01
2013-4-18,59.6,53.0,45.4,56.5,47.7,41.2,95,83,68,30.35,30.10,12,2,13,0.00
2013-4-19,77.5,66.8,57.3,66.2,61.7,55.6,95,85,64,30.10,29.67,18,4,18,0.05
2013-4-20,64.8,52.5,47.8,62.7,37.8,27.0,94,61,36,30.31,29.68,11,3,12,0.19
2013-4-21,52.5,44.2,36.6,32.3,26.4,21.3,76,50,35,30.63,30.30,10,2,12,0.00
2013-4-22,47.9,42.9,35.5,40.0,35.4,30.8,88,75,60,30.65,30.48,19,5,20,0.00
2013-4-23,49.7,44.7,41.7,43.3,39.9,35.8,94,83,77,30.48,30.12,17,3,17,0.00
2013-4-24,74.7,55.6,40.3,57.4,47.5,37.9,92,76,47,30.12,29.85,14,1,14,0.00
2013-4-25,64.0,54.5,46.9,54.8,37.0,28.1,87,54,27,30.28,29.89,15,2,16,0.00
2013-4-26,65.1,54.2,42.3,39.5,35.5,28.5,82,52,26,30.41,30.28,9,1,11,0.00
2013-4-27,68.9,54.7,39.8,39.3,35.2,30.8,86,51,25,30.44,30.31,10,1,10,0.00
2013-4-28,69.3,56.3,43.1,46.1,38.9,31.5,85,55,28,30.33,30.22,10,1,12,0.00
2013-4-29,56.4,53.6,50.9,52.0,50.0,46.1,94,88,72,30.25,30.18,10,1,13,0.14
2013-4-30,62.9,54.7,46.9,50.1,43.3,31.7,94,68,33,30.34,30.20,12,2,12,0.00
2013-5-1,62.0,52.8,43.5,47.2,42.2,35.2,89,69,42,30.49,30.33,13,2,13,0.00
2013-5-2,68.8,55.5,41.4,48.3,43.6,39.5,95,68,38,30.48,30.35,7,0,9,0.00
2013-5-3,59.4,52.2,44.8,47.0,42.9,37.6,91,72,49,30.47,30.36,12,2,13,0.00
2013-5-4,62.7,51.6,43.3,48.1,43.5,40.8,95,76,46,30.38,30.27,9,1,11,0.00
2013-5-5,56.4,48.9,40.8,45.2,41.8,38.4,93,77,63,30.30,30.24,11,2,11,0.00
2013-5-6,61.1,52.7,46.5,52.9,48.4,44.0,95,86,70,30.28,30.17,8,2,8,0.00
2013-5-7,65.8,55.8,49.5,59.5,53.5,48.1,95,92,80,30.18,30.09,8,1,8,0.04
2013-5-8,68.5,60.7,56.3,64.5,57.7,53.1,98,90,67,30.10,29.95,12,1,12,1.09
2013-5-9,68.8,60.4,54.5,59.5,55.8,52.8,98,86,64,30.01,29.91,6,0,7,0.29
2013-5-10,81.5,66.7,54.5,62.0,58.0,52.8,95,76,41,30.02,29.90,6,0,7,0.05
2013-5-11,76.2,65.6,62.3,68.2,62.7,58.5,96,91,70,29.92,29.71,11,0,11,0.04
2013-5-12,67.4,60.2,50.8,62.6,45.3,29.4,96,62,30,29.97,29.68,10,2,11,0.03
2013-5-13,56.4,49.8,42.2,36.2,32.3,25.8,76,52,35,30.12,29.97,8,1,13,0.00
2013-5-14,59.9,49.6,38.2,36.2,31.9,24.6,84,54,26,30.16,30.05,6,1,9,0.00
2013-5-15,73.5,60.9,45.9,60.1,50.9,34.4,84,70,52,30.10,29.71,9,1,13,0.01
2013-5-16,79.6,68.7,60.9,63.5,58.5,52.4,90,72,45,29.85,29.72,7,0,9,0.00
2013-5-17,72.7,65.1,55.7,61.7,45.4,40.1,83,50,32,30.21,29.84,9,1,11,0.00
2013-5-18,65.1,57.9,52.9,57.0,52.7,47.1,93,83,67,30.32,30.21,7,0,8,0.00
2013-5-19,58.8,57.1,54.9,57.7,55.8,53.4,96,95,93,30.31,30.17,7,1,8,0.00
2013-5-20,78.8,67.8,58.5,70.0,63.9,57.3,98,88,69,30.19,29.99,6,0,7,0.01
2013-5-21,85.8,74.7,64.1,72.6,68.0,62.6,96,81,59,29.99,29.86,6,0,9,0.01
2013-5-22,85.7,73.7,67.3,75.0,69.1,65.5,95,86,65,29.93,29.83,8,0,10,0.01
2013-5-23,81.7,72.1,67.0,72.1,68.2,65.0,95,88,65,29.92,29.77,11,1,12,0.71
2013-5-24,67.0,56.0,44.4,65.2,54.1,42.7,96,93,84,29.98,29.71,9,1,11,0.18
2013-5-25,58.3,50.3,43.3,46.3,41.6,36.3,96,75,49,30.04,29.93,14,3,19,0.08
2013-5-26,67.9,57.5,47.0,42.5,38.5,34.2,76,51,30,30.22,30.01,10,2,11,0.00
2013-5-27,74.0,60.1,42.8,47.3,41.6,37.3,87,54,30,30.27,30.15,7,0,8,0.00
2013-5-28,66.5,59.5,51.9,60.3,54.6,46.9,96,85,60,30.24,30.13,7,0,7,0.36
2013-5-29,87.6,72.3,58.7,71.5,64.2,57.4,96,78,52,30.14,30.02,9,0,10,0.00
2013-5-30,91.2,80.2,68.7,70.4,67.1,62.9,92,67,41,30.15,30.07,5,0,8,0.00
2013-5-31,93.7,81.3,69.2,72.8,66.8,58.3,93,65,33,30.15,30.01,7,0,8,0.00
2013-6-1,91.3,79.5,68.6,70.9,68.0,65.8,91,70,46,30.04,29.92,8,0,11,0.00
2013-6-2,88.6,78.7,71.1,72.7,69.4,66.4,89,74,54,29.94,29.80,11,0,13,0.00
2013-6-3,77.5,70.9,64.9,71.4,68.0,62.9,95,91,77,29.88,29.80,5,0,7,0.13
2013-6-4,74.2,65.2,57.3,63.1,49.7,46.0,94,59,38,30.12,29.88,8,1,8,0.01
2013-6-5,70.6,62.8,51.8,56.5,51.1,44.0,94,67,49,30.22,30.11,5,0,6,0.00
2013-6-6,69.6,62.9,57.2,61.5,58.7,52.1,96,87,57,30.15,30.00,9,1,9,0.00
2013-6-7,68.4,62.8,60.5,66.9,61.5,59.2,96,96,95,30.01,29.58,7,1,9,2.58
2013-6-8,76.2,67.1,57.3,67.4,62.7,56.2,96,86,70,30.07,29.56,7,0,9,0.10
2013-6-9,82.1,72.1,61.4,65.7,61.6,58.3,92,71,49,30.19,30.07,6,0,8,0.00
2013-6-10,70.4,67.5,64.9,68.9,65.3,62.7,96,93,84,30.17,29.82,7,0,9,0.83
2013-6-11,80.8,73.8,68.0,69.7,67.0,62.3,96,80,63,29.82,29.65,8,1,12,0.00
2013-6-12,80.4,71.7,65.3,62.8,59.0,55.3,80,65,44,29.86,29.74,10,1,10,0.00
2013-6-13,71.9,65.5,58.6,67.2,61.5,57.2,95,87,69,29.86,29.43,10,1,12,0.34
2013-6-14,72.7,60.7,54.1,61.3,55.9,52.2,95,85,59,29.92,29.49,9,1,10,0.00
2013-6-15,80.3,68.9,57.3,61.7,57.4,53.2,94,70,43,30.04,29.91,4,0,5,0.00
2013-6-16,83.0,71.3,60.0,66.4,61.9,57.0,91,74,48,30.02,29.81,0,0,0,0.01
2013-6-17,86.0,73.8,65.7,71.3,67.5,64.2,95,82,55,29.94,29.85,0,0,0,0.12
2013-6-18,78.3,67.9,63.6,71.6,65.5,62.2,96,92,77,29.92,29.80,0,0,0,0.56
2013-6-19,76.1,67.5,60.4,63.6,57.4,50.1,96,73,41,30.18,29.87,0,0,0,0.00
2013-6-20,81.2,68.0,57.1,62.2,56.6,52.8,93,69,42,30.29,30.18,0,0,0,0.00
2013-6-21,82.5,69.8,58.0,63.9,56.8,53.8,90,65,43,30.33,30.26,0,0,0,0.00
2013-6-22,84.1,70.5,58.4,66.7,60.7,56.4,95,73,45,30.28,30.15,4,0,9,0.00
2013-6-23,88.0,74.2,63.1,75.6,67.0,57.6,95,79,55,30.22,30.08,10,0,25,0.55
2013-6-24,90.5,77.6,72.0,76.2,71.0,64.2,96,81,55,30.09,29.98,6,0,7,0.01
2013-6-25,90.7,78.6,68.0,75.5,69.8,65.4,95,76,53,30.01,29.84,6,0,7,0.01
2013-6-26,89.9,78.2,71.2,74.6,68.9,65.0,95,75,48,29.88,29.78,4,0,6,0.75
2013-6-27,86.0,76.9,71.6,76.9,72.4,70.4,96,87,65,29.84,29.58,10,0,10,0.11
2013-6-28,87.3,77.3,71.3,73.6,70.9,66.2,95,82,57,29.60,29.49,7,0,9,0.00
2013-6-29,86.4,76.1,68.7,74.5,70.2,66.9,95,83,56,29.72,29.50,6,0,8,0.00
2013-6-30,83.6,75.0,70.2,76.6,72.3,68.7,95,92,75,29.92,29.72,5,0,6,0.19
2013-7-1,80.3,74.6,72.6,75.2,72.7,70.8,96,94,83,30.06,29.90,9,0,9,0.36
2013-7-2,85.2,76.4,72.5,76.2,73.0,70.4,95,90,72,30.20,30.05,9,0,10,1.65
2013-7-3,84.5,75.9,70.3,78.3,73.2,68.8,95,91,79,30.27,30.17,5,0,6,0.26
2013-7-4,88.8,80.2,73.7,77.1,74.0,72.2,95,83,59,30.27,30.18,9,0,9,0.00
2013-7-5,91.1,81.3,72.0,77.3,73.2,70.2,95,78,56,30.24,30.11,6,0,7,0.00
2013-7-6,92.3,82.6,74.2,77.5,74.4,72.4,94,78,57,30.16,30.04,4,0,7,0.00
2013-7-7,93.0,83.6,74.6,77.5,74.5,70.7,93,75,58,30.09,29.95,5,0,8,0.00
2013-7-8,87.3,77.7,71.2,73.7,70.4,67.9,90,79,60,30.07,29.99,8,0,8,0.00
2013-7-9,85.8,78.8,70.0,74.6,71.5,67.4,93,79,64,30.09,30.00,4,0,6,0.00
2013-7-10,87.1,80.3,73.3,77.3,74.0,70.6,93,82,66,30.03,29.83,7,0,8,0.00
2013-7-11,83.4,78.1,74.7,74.8,72.1,67.0,95,82,65,29.92,29.82,4,0,5,0.12
2013-7-12,75.9,71.8,68.1,70.5,67.4,64.3,96,86,73,30.07,29.92,10,1,11,1.01
2013-7-13,85.0,75.7,69.2,78.2,73.0,68.0,96,92,73,30.29,30.07,8,0,9,0.84
2013-7-14,88.2,79.6,73.0,76.6,74.2,71.8,96,84,66,30.35,30.26,3,0,3,0.01
2013-7-15,92.0,83.0,74.8,78.0,75.0,72.0,94,78,60,30.27,30.13,4,0,4,0.00
2013-7-16,91.4,83.1,74.9,76.0,71.4,67.9,91,70,48,30.20,30.13,6,0,6,0.00
2013-7-17,94.5,83.7,75.1,76.9,73.1,69.8,90,72,52,30.20,30.08,4,0,4,0.00
2013-7-18,95.1,85.3,75.3,78.7,75.0,71.3,90,72,53,30.09,29.97,4,0,4,0.00
2013-7-19,96.3,86.8,79.1,81.8,77.9,75.7,93,76,56,29.99,29.82,9,0,11,0.00
2013-7-20,92.8,84.0,77.7,77.2,74.7,72.2,84,74,55,29.84,29.74,9,0,11,0.00
2013-7-21,83.3,77.3,73.5,74.9,71.1,66.0,94,82,58,29.96,29.83,6,0,6,0.00
2013-7-22,84.1,76.4,73.2,77.6,74.1,71.6,96,93,78,29.96,29.80,4,0,5,0.71
2013-7-23,85.3,76.9,70.4,76.2,73.3,69.2,96,89,70,29.80,29.58,5,0,6,0.81
2013-7-24,80.9,75.7,69.5,72.7,67.5,58.1,93,76,63,29.92,29.64,5,1,5,0.01
2013-7-25,69.4,65.6,64.1,60.9,58.6,56.4,88,78,68,30.05,29.92,6,0,6,0.00
2013-7-26,81.0,71.1,64.5,67.7,63.4,60.5,91,78,53,30.07,30.00,5,0,5,0.00
2013-7-27,82.6,72.6,64.3,69.9,65.8,62.3,96,81,54,30.07,29.97,5,0,7,0.01
2013-7-28,80.0,72.1,65.4,71.9,68.4,63.8,96,89,73,30.00,29.91,8,0,9,0.00
2013-7-29,83.9,74.0,66.9,70.0,65.0,56.2,96,76,45,30.12,29.96,4,0,5,0.00
2013-7-30,79.8,71.3,61.4,62.8,59.5,57.1,87,68,48,30.18,30.11,7,0,7,0.00
2013-7-31,80.3,71.6,62.3,65.6,62.3,59.2,90,74,50,30.17,30.05,4,0,4,0.00
2013-8-1,72.0,69.4,67.6,68.6,66.4,63.8,96,90,82,30.05,29.84,5,0,6,0.00
2013-8-2,84.6,74.4,66.4,68.0,66.4,63.0,96,78,52,29.94,29.81,6,0,7,0.00
2013-8-3,75.8,71.0,67.7,69.9,66.7,63.5,94,86,75,29.94,29.88,3,0,6,0.00
2013-8-4,77.5,70.8,64.1,65.6,60.4,54.4,95,72,46,29.99,29.86,7,1,7,0.00
2013-8-5,77.1,67.8,58.6,60.9,54.1,48.3,82,63,40,30.07,29.98,5,0,5,0.00
2013-8-6,80.2,70.0,58.7,64.8,58.9,55.5,91,70,44,30.13,30.05,8,0,11,0.00
2013-8-7,78.7,71.7,66.1,69.2,66.8,63.6,93,85,71,30.15,30.07,9,0,10,0.00
2013-8-8,84.3,75.1,70.2,77.1,71.8,68.0,96,90,75,30.08,30.01,8,0,9,0.02
2013-8-9,85.3,78.3,73.9,77.5,74.6,71.5,94,89,74,30.03,29.83,8,0,9,0.00
2013-8-10,81.3,75.8,70.8,74.3,68.4,63.7,96,79,57,30.06,29.88,4,0,5,0.00
2013-8-11,82.7,72.0,63.0,67.8,62.3,57.1,92,73,51,30.14,30.04,6,0,6,0.00
2013-8-12,78.3,72.3,68.3,73.0,69.5,66.8,96,91,81,30.05,29.94,3,0,6,0.00
2013-8-13,75.0,71.2,67.9,71.8,69.3,66.7,96,94,85,29.95,29.72,6,0,6,0.00
2013-8-14,72.8,67.1,59.8,68.1,55.7,50.2,90,68,51,30.06,29.75,9,2,11,0.00
2013-8-15,77.3,65.8,55.1,58.3,53.8,46.9,89,67,39,30.16,30.06,6,0,6,0.00
2013-8-16,77.8,67.4,56.4,60.3,56.4,51.0,93,70,43,30.22,30.14,4,0,5,0.00
2013-8-17,79.3,68.9,58.6,65.0,59.1,55.5,93,73,47,30.29,30.22,4,0,6,0.00
2013-8-18,74.1,67.3,61.7,66.6,61.4,58.0,93,82,59,30.27,30.14,4,0,4,0.00
2013-8-19,76.2,69.1,61.8,66.3,62.4,58.1,93,80,61,30.16,30.06,4,0,4,0.00
2013-8-20,86.5,75.0,63.6,71.3,67.0,62.0,96,78,52,30.15,30.07,5,0,5,0.00
2013-8-21,88.5,77.0,66.6,71.6,66.4,61.0,95,73,42,30.19,30.08,4,0,5,0.00
2013-8-22,81.2,73.5,70.4,74.4,70.6,68.3,95,91,74,30.08,29.90,5,0,6,0.00
2013-8-23,79.7,72.8,66.2,69.6,64.4,55.4,95,77,44,30.09,29.89,5,0,5,0.00
2013-8-24,76.5,68.8,61.9,61.1,58.4,52.7,92,71,46,30.36,30.09,7,0,7,0.00
2013-8-25,82.1,68.5,57.5,60.3,57.0,53.5,95,70,39,30.42,30.26,5,0,6,0.00
2013-8-26,83.0,72.1,62.6,68.1,63.2,55.3,88,74,58,30.27,29.94,8,0,8,0.00
2013-8-27,86.0,76.8,69.8,70.9,69.0,67.5,94,78,56,29.94,29.85,7,1,8,0.00
2013-8-28,81.1,74.1,69.6,73.8,70.8,67.5,96,90,73,29.91,29.84,3,0,4,0.00
2013-8-29,78.0,71.8,68.3,70.0,68.2,66.1,96,89,74,30.05,29.88,6,0,7,0.00
2013-8-30,82.4,73.7,68.2,72.6,68.8,65.6,93,85,69,30.04,29.89,5,0,7,0.00
2013-8-31,87.8,77.2,70.4,76.1,71.9,68.4,94,84,67,29.91,29.80,6,0,7,0.00
2013-9-1,88.0,76.6,71.8,76.4,72.3,69.1,95,87,64,29.87,29.80,6,0,11,0.00
2013-9-2,78.6,75.1,71.8,75.6,73.2,70.4,96,94,84,29.81,29.73,2,0,5,0.00
2013-9-3,80.3,73.4,66.0,72.5,66.8,59.5,96,82,54,29.90,29.73,5,0,6,0.00
2013-9-4,79.8,69.4,60.2,61.4,59.1,55.5,93,72,48,30.03,29.90,9,0,10,0.00
2013-9-5,77.0,68.0,59.7,63.7,56.4,45.9,93,69,41,30.15,29.96,7,0,8,0.00
2013-9-6,71.3,61.6,52.6,51.6,48.4,43.8,84,64,39,30.26,30.15,5,0,7,0.00
2013-9-7,78.9,64.2,50.0,58.6,52.0,47.5,93,68,36,30.15,29.93,6,0,7,0.00
2013-9-8,80.3,70.4,63.0,67.4,59.9,48.5,93,71,48,30.08,29.84,7,1,8,0.00
2013-9-9,74.6,64.3,55.1,60.8,54.7,48.8,87,72,51,30.24,30.08,7,0,10,0.00
2013-9-10,86.3,75.5,64.8,75.0,69.5,60.4,91,82,68,30.19,30.07,8,0,9,0.00
2013-9-11,94.8,82.1,72.6,78.8,73.8,70.8,95,78,55,30.14,29.99,6,0,7,0.00
2013-9-12,88.4,76.1,69.7,76.4,71.8,68.2,95,87,65,30.02,29.71,9,0,10,0.22
2013-9-13,75.4,68.0,59.3,68.7,62.1,51.0,96,83,56,29.87,29.65,9,1,10,0.12
2013-9-14,66.3,57.7,51.2,51.3,49.2,46.3,88,74,57,30.15,29.87,7,1,8,0.00
2013-9-15,72.2,58.8,46.1,55.0,49.4,44.2,94,73,46,30.24,30.10,5,0,6,0.00
2013-9-16,68.3,61.7,57.9,60.6,56.5,52.4,95,84,64,30.23,30.05,5,0,5,0.02
2013-9-17,63.0,55.2,47.7,52.7,43.2,39.4,88,65,44,30.43,30.23,9,1,10,0.00
2013-9-18,72.5,57.0,46.2,53.4,47.8,43.4,91,74,42,30.37,30.21,6,0,7,0.00
2013-9-19,77.0,60.9,47.4,58.3,52.5,45.8,96,77,42,30.22,30.09,6,0,6,0.00
2013-9-20,80.5,64.1,51.2,62.0,56.6,49.6,96,79,42,30.11,30.01,7,0,8,0.00
2013-9-21,80.7,67.2,53.3,67.9,61.6,51.6,96,84,47,30.03,29.69,14,1,18,0.14
2013-9-22,68.8,63.0,54.8,66.3,54.0,43.6,96,74,50,29.93,29.67,9,1,9,1.32
2013-9-23,64.9,55.5,47.0,47.4,44.5,42.0,86,68,51,30.06,29.92,6,1,8,0.00
2013-9-24,70.0,56.6,44.0,53.9,47.1,41.8,93,72,49,30.08,29.90,6,0,6,0.00
2013-9-25,70.8,59.3,48.5,55.1,49.8,44.7,92,73,46,29.97,29.89,4,0,4,0.00
2013-9-26,70.1,59.7,51.7,60.9,55.7,50.0,95,87,68,30.11,29.95,6,0,7,0.00
2013-9-27,67.8,60.8,53.5,57.6,55.2,51.4,96,83,59,30.27,30.10,5,0,6,0.00
2013-9-28,70.6,61.9,54.3,56.6,54.3,50.5,94,78,51,30.33,30.24,6,0,7,0.00
2013-9-29,69.5,59.3,51.8,59.6,53.7,49.8,96,83,61,30.24,30.09,6,0,7,0.00
2013-9-30,74.6,59.7,50.5,57.8,53.7,49.1,96,82,50,30.09,29.99,3,0,4,0.00
2013-10-1,79.6,65.8,52.3,62.4,57.5,50.4,95,76,53,30.03,29.92,5,0,5,0.00
2013-10-2,82.3,69.3,57.9,65.0,60.9,55.6,94,76,50,30.03,29.94,6,0,8,0.00
2013-10-3,79.2,68.7,60.5,63.7,59.9,56.2,92,75,52,30.14,30.03,4,0,5,0.00
2013-10-4,86.1,72.0,60.9,68.6,64.0,56.6,96,78,52,30.08,29.98,4,0,7,0.00
2013-10-5,75.7,67.6,64.3,68.5,65.0,63.0,96,92,77,30.10,30.01,4,0,5,0.18
2013-10-6,73.0,67.3,64.4,69.5,65.8,63.2,96,95,88,30.10,30.03,5,0,5,0.02
2013-10-7,77.8,67.6,58.1,72.3,65.4,54.5,96,93,77,30.03,29.80,23,1,23,0.04
2013-10-8,65.4,58.1,52.1,54.5,49.7,45.9,90,75,50,30.32,30.01,7,0,9,0.00
2013-10-9,60.9,57.9,53.9,52.8,50.2,43.7,84,76,62,30.37,30.26,10,2,11,0.00
2013-10-10,61.9,58.0,54.3,58.6,55.0,51.3,96,90,80,30.27,30.06,8,1,8,0.01
2013-10-11,64.3,61.8,60.1,61.7,59.6,57.6,96,93,86,30.08,29.98,7,1,11,0.00
2013-10-12,67.3,62.8,59.3,59.0,54.8,48.5,88,75,62,30.26,30.06,13,3,14,0.00
2013-10-13,63.1,58.7,55.2,55.9,52.7,50.1,86,81,66,30.38,30.25,11,2,12,0.00
2013-10-14,64.9,55.7,49.3,54.1,50.6,47.4,95,84,63,30.37,30.26,4,0,5,0.00
2013-10-15,68.2,56.6,48.3,57.2,50.0,42.3,96,81,43,30.28,30.12,5,0,5,0.00
2013-10-16,66.9,60.0,51.0,61.0,57.6,49.3,96,92,79,30.12,29.94,4,0,4,0.00
2013-10-17,71.7,64.4,59.9,64.7,61.4,58.8,96,91,74,29.94,29.72,7,0,8,0.00
2013-10-18,66.5,60.3,52.5,63.6,48.9,43.8,92,67,49,30.01,29.71,8,1,8,0.00
2013-10-19,63.9,54.7,44.3,55.9,48.3,41.7,94,80,62,30.01,29.78,6,0,7,0.00
2013-10-20,61.4,53.5,44.7,55.7,43.1,35.6,94,70,40,30.09,29.79,7,1,8,0.00
2013-10-21,69.7,53.3,39.5,47.3,42.0,37.2,93,69,36,30.17,30.01,9,0,10,0.00
2013-10-22,68.0,54.9,46.9,52.7,47.7,40.4,99,78,52,30.01,29.78,6,0,10,0.00
2013-10-23,53.8,47.9,42.3,46.0,41.0,36.7,89,77,63,29.83,29.62,6,0,6,0.00
2013-10-24,53.2,44.7,38.9,38.0,34.1,29.7,89,68,44,30.05,29.79,8,1,9,0.00
2013-10-25,52.6,44.3,37.1,36.2,33.1,30.4,81,65,44,30.27,30.05,10,1,12,0.00
2013-10-26,57.3,45.2,32.2,36.4,33.5,29.6,91,66,38,30.26,29.93,12,0,13,0.00
2013-10-27,57.4,49.5,41.7,37.5,35.4,33.0,76,59,44,30.15,29.89,8,1,9,0.00
2013-10-28,61.7,48.3,35.2,40.8,36.3,31.7,88,65,42,30.32,30.15,5,0,6,0.00
2013-10-29,57.3,48.3,42.1,43.5,40.1,37.4,89,74,56,30.41,30.32,6,0,6,0.00
2013-10-30,59.3,50.0,40.9,54.0,46.9,38.5,93,89,78,30.37,30.20,6,0,6,0.00
2013-10-31,69.7,61.3,52.0,62.0,57.0,50.0,95,86,73,30.25,29.83,8,1,10,0.00
2013-11-1,69.2,64.7,58.7,64.2,60.2,56.0,95,86,69,29.84,29.58,17,1,21,0.00
2013-11-2,69.5,59.0,51.9,58.5,50.7,41.8,98,76,46,29.80,29.64,6,0,7,0.00
2013-11-3,53.1,46.5,34.9,42.7,35.7,22.9,86,67,43,30.46,29.80,10,2,11,0.00
2013-11-4,45.6,38.1,32.6,31.7,25.2,21.1,80,60,42,30.67,30.46,6,0,6,0.00
2013-11-5,55.6,46.1,36.0,43.8,39.5,31.7,94,78,62,30.65,30.49,6,0,7,0.00
2013-11-6,63.0,53.0,41.5,55.8,47.4,39.8,95,82,60,30.51,30.08,8,0,9,0.00
2013-11-7,63.5,55.6,39.9,60.0,51.6,34.3,94,87,68,30.08,29.78,10,1,10,0.00
2013-11-8,48.2,43.0,38.0,36.9,31.5,28.0,81,64,47,30.26,29.97,14,2,16,0.00
2013-11-9,51.8,43.0,35.3,36.3,30.5,27.6,76,62,41,30.32,30.02,6,0,6,0.00
2013-11-10,60.9,49.1,40.3,39.2,34.2,28.8,83,59,41,30.09,29.86,13,2,16,0.00
2013-11-11,54.7,48.1,40.1,37.2,31.1,27.0,62,52,40,30.25,30.00,9,1,10,0.00
2013-11-12,50.3,38.3,29.3,38.8,27.4,18.3,93,66,51,30.32,29.95,15,3,15,0.00
2013-11-13,39.2,32.0,26.4,20.9,17.5,12.3,69,56,33,30.40,30.31,12,2,13,0.07
2013-11-14,54.4,41.1,28.8,23.1,19.4,14.4,74,46,21,30.32,30.20,9,1,10,0.07
2013-11-15,60.9,44.5,33.0,36.2,30.6,21.7,84,61,25,30.28,30.18,4,0,4,0.00
2013-11-16,57.2,47.1,40.6,49.3,42.4,33.3,95,84,69,30.36,30.25,7,0,7,0.03
2013-11-17,65.1,56.0,45.5,61.3,54.2,44.2,98,94,83,30.28,29.81,8,0,8,0.00
2013-11-18,66.1,60.5,50.8,62.9,43.2,28.0,95,57,30,29.82,29.64,13,2,17,0.17
2013-11-19,50.9,43.8,35.3,30.8,26.5,23.0,61,51,41,30.36,29.81,16,4,17,0.00
2013-11-20,44.2,35.8,30.1,23.6,19.3,12.2,71,53,29,30.62,30.36,7,1,11,0.00
2013-11-21,53.7,43.8,31.6,42.9,35.3,18.9,82,72,59,30.62,30.40,9,0,11,0.00
2013-11-22,57.9,51.9,47.8,51.4,48.0,42.3,94,87,77,30.40,29.94,7,0,8,0.01
2013-11-23,52.6,42.6,31.2,50.0,29.0,13.5,92,59,42,30.06,29.93,13,4,23,0.00
2013-11-24,31.5,25.8,22.7,13.6,4.5,1.3,47,40,32,30.43,30.03,23,5,23,0.00
2013-11-25,36.4,27.9,20.6,18.5,13.2,5.8,71,54,41,30.53,30.36,7,1,8,0.00
2013-11-26,54.5,38.6,31.3,53.1,30.6,18.6,95,74,49,30.37,29.74,13,1,14,0.48
2013-11-27,62.9,46.0,34.0,61.5,43.1,21.8,96,90,60,29.80,29.37,23,5,27,0.62
2013-11-28,36.1,31.6,27.6,24.6,17.9,12.9,71,57,40,30.50,29.80,16,3,18,0.63
2013-11-29,39.5,32.3,26.5,23.9,21.7,19.0,86,65,48,30.75,30.49,8,1,11,0.15
2013-11-30,38.0,32.4,24.6,31.7,24.3,14.8,85,72,62,30.75,30.38,7,1,8,0.10
2013-12-1,50.0,41.2,32.4,35.5,32.5,28.5,86,72,55,30.38,30.03,5,0,5,0.04
2013-12-2,52.8,42.3,36.2,37.8,32.9,30.1,95,71,44,30.03,29.90,4,0,4,0.00
2013-12-3,53.5,43.5,37.9,40.5,37.9,33.6,95,82,57,30.02,29.89,4,0,5,0.00
2013-12-4,52.9,44.2,36.0,46.2,40.6,33.0,96,87,69,30.14,30.02,3,0,5,0.00
2013-12-5,61.8,54.5,47.0,57.9,52.9,45.7,96,94,86,30.13,29.95,8,0,9,0.03
2013-12-6,61.8,49.3,37.8,60.7,48.0,36.7,96,95,93,30.15,29.89,11,2,11,0.45
2013-12-7,40.5,36.0,31.2,36.6,30.4,21.2,96,81,64,30.53,30.08,14,2,14,0.16
2013-12-8,33.1,29.5,27.0,32.1,23.9,17.6,96,80,64,30.61,30.35,5,0,6,0.00
2013-12-9,40.0,36.3,32.9,39.0,35.3,31.9,96,96,96,30.35,29.99,10,2,12,0.71
2013-12-10,34.4,31.9,27.3,33.8,30.2,22.7,96,93,81,30.18,29.88,6,1,8,0.03
2013-12-11,32.9,28.5,24.8,22.7,19.3,16.4,82,68,55,30.38,30.17,7,1,8,0.06
2013-12-12,27.3,24.1,18.2,19.2,12.2,5.7,79,61,42,30.39,30.21,12,2,13,0.00
2013-12-13,35.7,26.9,17.0,19.4,15.6,10.3,79,63,48,30.35,30.17,9,1,9,0.00
2013-12-14,46.5,31.1,28.3,45.2,27.5,19.2,96,87,67,30.48,29.72,13,3,17,0.74
2013-12-15,50.9,36.5,30.9,49.4,32.1,22.7,96,85,63,29.89,29.50,12,2,13,0.41
2013-12-16,32.6,27.3,21.1,24.5,14.6,9.3,77,59,44,30.26,29.87,12,2,15,0.01
2013-12-17,36.0,28.4,23.2,35.0,25.3,16.0,96,88,68,30.24,29.93,6,0,8,0.04
2013-12-18,37.0,29.0,23.1,26.0,22.3,20.4,92,77,56,30.21,29.93,13,1,13,0.01
2013-12-19,48.5,36.0,25.3,32.3,27.3,21.0,87,71,51,30.23,30.06,7,0,9,0.00
2013-12-20,55.5,46.5,37.8,49.5,36.7,31.2,89,70,48,30.13,30.00,8,0,9,0.00
2013-12-21,68.1,57.3,49.8,57.4,51.7,47.3,93,82,62,30.03,29.91,10,1,13,0.00
2013-12-22,70.9,64.9,61.4,64.9,60.5,57.3,93,86,76,29.99,29.82,21,2,21,0.04
2013-12-23,62.7,56.0,41.4,61.2,54.0,34.7,96,93,77,30.17,29.89,13,1,17,0.54
2013-12-24,41.4,35.6,27.1,34.7,24.5,13.1,83,64,50,30.38,30.11,13,3,13,0.05
2013-12-25,28.5,25.0,19.3,18.6,12.0,8.3,72,57,48,30.55,30.38,14,2,15,0.00
2013-12-26,38.9,29.9,22.9,28.5,23.5,18.1,89,77,65,30.45,30.18,7,0,8,0.03
2013-12-27,43.1,33.5,24.9,23.9,22.0,19.0,85,64,41,30.40,30.29,7,0,9,0.02
2013-12-28,56.6,41.2,28.3,31.9,27.8,21.8,83,61,38,30.32,30.10,11,0,12,0.00
2013-12-29,48.7,42.9,40.5,47.6,37.8,29.6,97,83,61,30.10,29.41,13,2,15,0.22
2013-12-30,45.4,37.2,24.3,40.2,30.4,13.5,97,77,59,30.20,29.73,13,2,13,0.03
2013-12-31,36.4,27.9,21.3,26.5,16.7,12.4,75,62,51,30.33,30.09,11,1,13,0.11
2014-1-1,35.0,29.2,22.6,28.8,18.9,11.8,80,65,55,30.44,30.24,7,1,8,0.06
2014-1-2,34.9,29.6,21.8,30.4,26.8,20.3,94,89,79,30.24,29.63,14,4,14,0.00